Weather History for Cardiff-Wales, United Kingdom

Change the Weather History Date:

Friday, December 21, 2012

  Actual Average Record
Temperature  
Mean Temperature 47 °F -  
Max Temperature 50 °F 45 °F 53 °F (2013)
Min Temperature 44 °F 36 °F 26 °F (1998)
Degree Days  
Heating Degree Days 18    
Moisture  
Dew Point 46 °F    
Average Humidity 96    
Maximum Humidity 100    
Minimum Humidity 87    
Precipitation  
Precipitation 0.00 in 0.12 in - ()
Sea Level Pressure  
Sea Level Pressure 29.82 in    
Wind  
Wind Speed 8 mph ()    
Max Wind Speed 13 mph    
Max Gust Speed -    
Visibility 5.2 miles    
Events Fog , Rain    
Averages and records for this station are not official NWS values.
T = Trace of Precipitation, MM = Missing Value Source: Averaged Metar Reports

Daily Weather History Graph

Daily Weather History Graph

Search for Another Location

Airport:

Trip Planner

Search our weather history database for the weather conditions in past years. The results will help you decide how hot, cold, wet, or windy it might be!

Date:

Astronomy

Dec. 21, 2012 Rise Set
Actual Time 8:16 AM GMT 4:07 PM GMT
Civil Twilight 7:36 AM GMT 4:47 PM GMT
Nautical Twilight 6:52 AM GMT 5:30 PM GMT
Astronomical Twilight 6:12 AM GMT 6:11 PM GMT
Moon 12:15 PM GMT (12/21) 1:16 AM GMT (12/21)
Length of Visible Light 9h 11m
Length of Day
7h 50m
Waxing Gibbous, 62% of the Moon is Illuminated
Dec 21
Waxing Gibbous
Dec 28
Full
Jan 5
Last Quarter
Jan 11
New
Jan 18
First Quarter

Hourly Weather History & Observations

Time (GMT) Temp. Windchill Dew Point Humidity Pressure Visibility Wind Dir Wind Speed Gust Speed Precip Events Conditions
12:20 AM 48.2 °F - 46.4 °F 93% 29.62 in 3.1 mi WNW 11.5 mph - N/A Rain Rain
12:50 AM 46.4 °F 41.1 °F 46.4 °F 100% 29.65 in 4.3 mi West 11.5 mph - N/A Rain Rain
1:20 AM 46.4 °F 41.9 °F 46.4 °F 100% 29.65 in 6.2 mi WNW 9.2 mph - N/A   Mostly Cloudy
1:50 AM 46.4 °F 41.9 °F 46.4 °F 100% 29.65 in 6.2 mi WNW 9.2 mph - N/A   Mostly Cloudy
2:20 AM 46.4 °F 41.5 °F 46.4 °F 100% 29.65 in 6.2 mi WNW 10.4 mph - N/A Rain Rain Showers
2:50 AM 46.4 °F 41.9 °F 46.4 °F 100% 29.68 in 6.2 mi West 9.2 mph - N/A   Mostly Cloudy
3:20 AM 46.4 °F 42.9 °F 46.4 °F 100% 29.68 in 6.2 mi WNW 6.9 mph - N/A   Drizzle
3:50 AM 48.2 °F - 46.4 °F 93% 29.68 in 6.2 mi WNW 10.4 mph - N/A   Scattered Clouds
4:20 AM 48.2 °F - 46.4 °F 93% 29.68 in 6.2 mi WNW 11.5 mph - N/A   Scattered Clouds
4:50 AM 46.4 °F 41.5 °F 46.4 °F 100% 29.71 in 6.2 mi WNW 10.4 mph - N/A   Scattered Clouds
5:20 AM 46.4 °F 42.4 °F 44.6 °F 93% 29.71 in 6.2 mi West 8.1 mph - N/A   Partly Cloudy
5:50 AM 44.6 °F 40.2 °F 44.6 °F 100% 29.71 in 5.6 mi WNW 8.1 mph - N/A   Scattered Clouds
6:20 AM 44.6 °F 40.7 °F 44.6 °F 100% 29.71 in 3.7 mi WNW 6.9 mph - N/A   Mostly Cloudy
6:50 AM 44.6 °F 41.4 °F 42.8 °F 93% 29.71 in 5.6 mi WNW 5.8 mph - N/A   Mostly Cloudy
7:20 AM 44.6 °F 41.4 °F 42.8 °F 93% 29.74 in 1.2 mi WNW 5.8 mph - N/A   Mostly Cloudy
7:50 AM 44.6 °F 40.2 °F 44.6 °F 100% 29.77 in 0.5 mi WNW 8.1 mph - N/A Fog Fog
8:20 AM 44.6 °F 40.2 °F 44.6 °F 100% 29.77 in 1.2 mi NW 8.1 mph - N/A   Mostly Cloudy
8:50 AM 44.6 °F 41.4 °F 44.6 °F 100% 29.80 in 0.7 mi NW 5.8 mph - N/A   Mostly Cloudy
9:20 AM 46.4 °F 42.4 °F 46.4 °F 100% 29.83 in 1.2 mi WNW 8.1 mph - N/A   Mostly Cloudy
9:50 AM 46.4 °F 42.9 °F 46.4 °F 100% 29.83 in 3.7 mi WNW 6.9 mph - N/A   Mostly Cloudy
10:20 AM 46.4 °F 43.5 °F 46.4 °F 100% 29.86 in 5.0 mi WNW 5.8 mph - N/A   Scattered Clouds
10:50 AM 48.2 °F - 46.4 °F 93% 29.86 in 5.6 mi WNW 5.8 mph - N/A   Overcast
11:20 AM 46.4 °F 43.5 °F 46.4 °F 100% 29.86 in 6.2 mi WNW 5.8 mph - N/A   Scattered Clouds
11:50 AM 48.2 °F - 48.2 °F 100% 29.86 in 5.0 mi West 5.8 mph - N/A   Mostly Cloudy
12:20 PM 50.0 °F - 48.2 °F 94% 29.86 in 6.2 mi West 10.4 mph - N/A   Mostly Cloudy
12:50 PM 50.0 °F - 48.2 °F 94% 29.86 in 6.2 mi West 10.4 mph - N/A   Mostly Cloudy
1:20 PM 50.0 °F - 48.2 °F 94% 29.89 in 6.2 mi West 12.7 mph - N/A   Scattered Clouds
1:50 PM 50.0 °F - 48.2 °F 94% 29.89 in 6.2 mi West 12.7 mph - N/A   Scattered Clouds
2:20 PM 48.2 °F - 48.2 °F 100% 29.89 in 5.6 mi West 12.7 mph - N/A   Scattered Clouds
2:50 PM 48.2 °F - 48.2 °F 100% 29.89 in 6.2 mi West 9.2 mph - N/A Rain Light Rain
3:20 PM 48.2 °F - 48.2 °F 100% 29.89 in 5.6 mi West 9.2 mph - N/A   Scattered Clouds
3:50 PM 48.2 °F - 46.4 °F 93% 29.89 in 6.2 mi West 9.2 mph - N/A   Mostly Cloudy
4:20 PM 48.2 °F - 46.4 °F 93% 29.89 in 6.2 mi West 8.1 mph - N/A   Mostly Cloudy
4:50 PM 48.2 °F - 46.4 °F 93% 29.92 in 6.2 mi SW 4.6 mph - N/A   Mostly Cloudy
5:20 PM 46.4 °F 44.3 °F 46.4 °F 100% 29.92 in 6.2 mi SSW 4.6 mph - N/A   Mostly Cloudy
5:50 PM 46.4 °F 45.2 °F 44.6 °F 93% 29.92 in 6.2 mi SW 3.5 mph - N/A   Mostly Cloudy
6:20 PM 46.4 °F 45.2 °F 44.6 °F 93% 29.92 in 6.2 mi South 3.5 mph - N/A   Mostly Cloudy
6:50 PM 46.4 °F 45.2 °F 44.6 °F 93% 29.92 in 6.2 mi SSW 3.5 mph - N/A   Mostly Cloudy
7:20 PM 46.4 °F 44.3 °F 44.6 °F 93% 29.89 in 6.2 mi South 4.6 mph - N/A   Scattered Clouds
7:50 PM 46.4 °F 44.3 °F 44.6 °F 93% 29.92 in 6.2 mi South 4.6 mph - N/A   Scattered Clouds
8:20 PM 48.2 °F - 44.6 °F 87% 29.92 in 6.2 mi South 5.8 mph - N/A   Scattered Clouds
8:50 PM 46.4 °F 44.3 °F 44.6 °F 93% 29.92 in 6.2 mi South 4.6 mph - N/A   Scattered Clouds
9:20 PM 46.4 °F 44.3 °F 44.6 °F 93% 29.89 in 6.2 mi SSE 4.6 mph - N/A   Partly Cloudy
9:50 PM 46.4 °F 43.5 °F 44.6 °F 93% 29.89 in 6.2 mi SSE 5.8 mph - N/A Rain Rain
10:20 PM 46.4 °F 42.4 °F 44.6 °F 93% 29.89 in 3.1 mi SSE 8.1 mph - N/A Rain Rain
10:50 PM 46.4 °F 42.9 °F 46.4 °F 100% 29.89 in 3.7 mi South 6.9 mph - N/A Rain Rain
11:20 PM 46.4 °F 43.5 °F 46.4 °F 100% 29.89 in 5.6 mi SSE 5.8 mph - N/A Rain Rain
11:50 PM 46.4 °F 42.9 °F 44.6 °F 93% 29.86 in 5.6 mi SSE 6.9 mph - N/A Rain Rain